Regional Weather Roundup
Issued by NWS

Home | Current Version | Previous Version | Graphics & Text | Print | Product List | Glossary On
Versions: 1 2 3 4 5 6 7 8 9 10 11 12 13 14 15 16 17 18 19 20 21 22 23 24 25 26 27 28 29 30 31 32 33 34 35 36 37 38 39 40 41 42 43 44 45 46 47 48 49 50
000
ASUS43 KIND 291309
RWRIN

WEATHER ROUNDUP FOR INDIANA
NATIONAL WEATHER SERVICE INDIANAPOLIS IN
900 AM EDT FRI JUL 29 2016

NOTE: "FAIR" INDICATES FEW OR NO CLOUDS BELOW 12,000 FEET WITH NO
SIGNIFICANT WEATHER AND/OR OBSTRUCTIONS TO VISIBILITY.

* - STATION DOES NOT REPORT WEATHER SUCH AS PRECIPITATION OR FOG.

+ - STATION NOT QUALITY CONTROLLED BY THE NATIONAL WEATHER SERVICE.
    USE DATA WITH CAUTION...ESPECIALLY DEWPOINT AND RELATIVE
    HUMIDITY OBSERVATIONS.

INZ001>003-010>013-019-020-291400-
NORTHWEST INDIANA

CITY           SKY/WX    TMP DP  RH WIND       PRES   REMARKS
GARY /AIRPORT/ MOSUNNY   73  73 100 CALM      29.93R
KNOX *+        SUNNY     68  68 100 E5        29.92F
LA PORTE +     MOSUNNY  N/A N/A N/A E5        29.94S HAZE
MICHIGAN CITY+ SUNNY     72  72 100 CALM      29.94S
MONTICELLO +   SUNNY     72  66  81 CALM      29.91F
RENSSELAER +   SUNNY     70  70 100 CALM      29.93R
VALPARAISO     SUNNY     72  68  87 E3        29.93S

$$

LMZ046-743>745-291400-
SOUTHERN LAKE MICHIGAN

STATION/POSITION TIME  TEMP    WIND        PRES    WAVE
                       AIR SEA DIR/SP/G            HT
                 (UTC) (F)     (DEG/KT/KT) (MB)    (FT)
BURNS HARBOR     1204   72      50/  1/  6 1013.9R
MICHIGAN CITY    1200   69      20/  4/  4   N/A
5NW MICH CITY    1200   72 77   90/  4/  6   N/A     2

$$

INZ004-005-014>016-021>024-291400-
NORTH CENTRAL INDIANA

CITY           SKY/WX    TMP DP  RH WIND       PRES   REMARKS
ELKHART        SUNNY     72  66  83 E6        29.95S
GOSHEN         SUNNY     73  65  75 E7        29.94F
LOGANSPORT +   SUNNY     72  70  94 E3        29.93S
PERU/GRISSOM   SUNNY     73  71  92 E3        29.91F
ROCHESTER +    SUNNY     73  72  94 SE7       29.93F
SOUTH BEND     SUNNY     72  68  87 E8        29.94S
WARSAW +       SUNNY     72  68  88 SE5       29.94S

$$

INZ006>009-017-018-025>027-291400-
NORTHEAST INDIANA

CITY           SKY/WX    TMP DP  RH WIND       PRES   REMARKS
ANGOLA *+      MOSUNNY   72  63  73 E5        29.95S
AUBURN +       SUNNY     72  61  68 E6        29.95F
FORT WAYNE     PTSUNNY   72  68  87 E7        29.94F FOG
HUNTINGTON +   SUNNY     71  69  93 E6        29.94F FOG

$$

INZ028-029-035-036-043>045-051>053-291400-
WEST CENTRAL INDIANA

CITY           SKY/WX    TMP DP  RH WIND       PRES   REMARKS
CRAWFORDSVL +  FOG       69  69 100 CALM      29.93S VSB<1/4
GREENCASTLE +  FOG       70  70 100 CALM      29.94S VSB<1/4
LAFAYETTE      PTSUNNY   71  71 100 CALM      29.91F FOG
TERRE HAUTE    PTSUNNY   72  69  90 CALM      29.93S

$$

INZ030>032-037>040-046>048-054>057-064-065-291400-
CENTRAL INDIANA

CITY           SKY/WX    TMP DP  RH WIND       PRES   REMARKS
ANDERSON       SUNNY     73  68  83 CALM      29.94
COLUMBUS       CLOUDY    70  70 100 S5        29.94S FOG
FISHERS *+     SUNNY     75  73  94 CALM      29.94S
INDIANAPOLIS   FOG       73  70  90 S5        29.94S VSB 1/2
-EAGLE CREEK   SUNNY     75  69  81 CALM      29.93S
KOKOMO *+      SUNNY     72  66  83 CALM      29.92F
MARION +       SUNNY     69  68  96 CALM      29.94F FOG
MT COMFORT *+  SUNNY     72  70  94 CALM      29.94S
SHELBYVILLE    PTSUNNY   72  69  90 SW3       29.94R FOG
ZIONSVILLE +   SUNNY     72  70  95 CALM      29.94F FOG

$$

INZ033-034-041-042-049-050-058-059-291400-
EAST CENTRAL INDIANA

CITY           SKY/WX    TMP DP  RH WIND       PRES   REMARKS
MUNCIE         SUNNY     76  69  79 CALM      29.94S

$$

INZ060-061-067>069-081>083-085>088-291400-
SOUTHWEST INDIANA

CITY           SKY/WX    TMP DP  RH WIND       PRES   REMARKS
EVANSVILLE     PTSUNNY   74  71  91 W3        29.94R
HUNTINGBURG *+ PTSUNNY   72  70  94 S3        29.94S
WASHINGTON +   MOSUNNY   73  73 100 MISG      29.93S

$$

INZ062-063-066-070>080-084-089>092-291400-
SOUTH CENTRAL AND SOUTHEAST INDIANA

CITY           SKY/WX    TMP DP  RH WIND       PRES   REMARKS
BLOOMINGTON    SUNNY     73  68  84 S3        29.94S
MADISON *+     SUNNY     73  70  88 CALM      29.97S
NORTH VERNON + CLOUDY   N/A N/A N/A CALM      29.95S FOG
SEYMOUR +      CLOUDY    72  72 100 CALM      29.94S FOG

$$





USA.gov is the U.S. government's official web portal to all federal, state and local government web resources and services.